Time,TemperatureF,DewpointF,PressureIn,WindDirection,WindDirectionDegrees,WindSpeedMPH,WindSpeedGustMPH,Humidity,HourlyPrecipIn,Conditions,Clouds,dailyrainin,SoftwareType,DateUTC
2013-12-04 00:00:00,31.5,30.6,29.91,NW,309,0.0,0.0,97,0.00,,,0.00,VWS V14.00,2013-12-04 05:00:00,
2013-12-04 00:03:00,31.5,30.7,29.91,NW,309,0.0,0.0,97,0.00,,,0.00,VWS V14.00,2013-12-04 05:03:00,
2013-12-04 00:06:00,31.5,30.6,29.91,NW,309,0.0,0.0,97,0.00,,,0.00,VWS V14.00,2013-12-04 05:06:00,
2013-12-04 00:09:00,31.4,30.6,29.91,NW,309,0.0,0.0,97,0.00,,,0.00,VWS V14.00,2013-12-04 05:09:00,
2013-12-04 00:15:00,31.5,30.7,29.91,NW,309,0.0,0.0,97,0.00,,,0.00,VWS V14.00,2013-12-04 05:15:00,
2013-12-04 00:21:00,31.3,30.5,29.91,NW,309,0.0,0.0,97,0.00,,,0.00,VWS V14.00,2013-12-04 05:21:00,
2013-12-04 00:24:00,31.5,30.6,29.91,NW,309,0.0,0.0,96,0.00,,,0.00,VWS V14.00,2013-12-04 05:24:00,
2013-12-04 00:30:00,31.5,30.6,29.91,NW,309,0.0,0.0,96,0.00,,,0.00,VWS V14.00,2013-12-04 05:30:00,
2013-12-04 00:36:00,31.6,30.7,29.91,NW,309,0.0,0.0,96,0.00,,,0.00,VWS V14.00,2013-12-04 05:36:00,
2013-12-04 00:42:00,31.5,30.6,29.91,NW,309,0.0,0.0,96,0.00,,,0.00,VWS V14.00,2013-12-04 05:42:00,
2013-12-04 00:48:00,31.5,30.6,29.91,NW,309,0.0,0.0,96,0.00,,,0.00,VWS V14.00,2013-12-04 05:48:00,
2013-12-04 00:54:00,31.5,30.6,29.92,NW,309,0.0,0.0,96,0.00,,,0.00,VWS V14.00,2013-12-04 05:54:00,
2013-12-04 01:00:00,31.6,30.7,29.92,NW,309,0.0,0.0,96,0.00,,,0.00,VWS V14.00,2013-12-04 06:00:00,
2013-12-04 01:06:00,31.5,30.5,29.92,NW,309,0.0,0.0,96,0.00,,,0.00,VWS V14.00,2013-12-04 06:06:00,
2013-12-04 01:12:00,31.5,30.5,29.92,NW,309,0.0,0.0,96,0.00,,,0.00,VWS V14.00,2013-12-04 06:12:00,
2013-12-04 01:18:00,31.4,30.4,29.92,NW,309,0.0,0.0,96,0.00,,,0.00,VWS V14.00,2013-12-04 06:18:00,
2013-12-04 01:24:00,31.4,30.4,29.92,NW,309,0.0,0.0,96,0.00,,,0.00,VWS V14.00,2013-12-04 06:24:00,
2013-12-04 01:30:00,31.3,30.2,29.92,NW,309,0.0,0.0,96,0.00,,,0.00,VWS V14.00,2013-12-04 06:30:00,
2013-12-04 01:36:00,31.4,30.4,29.92,NW,309,0.0,0.0,96,0.00,,,0.00,VWS V14.00,2013-12-04 06:36:00,
2013-12-04 01:42:00,31.4,30.4,29.92,NW,309,0.0,0.0,96,0.00,,,0.00,VWS V14.00,2013-12-04 06:42:00,
2013-12-04 01:48:00,31.3,30.2,29.92,NW,309,0.0,0.0,96,0.00,,,0.00,VWS V14.00,2013-12-04 06:48:00,
2013-12-04 01:54:00,31.3,30.2,29.92,NW,309,0.0,0.0,96,0.00,,,0.00,VWS V14.00,2013-12-04 06:54:00,
2013-12-04 02:00:00,31.0,29.9,29.93,NW,309,0.0,0.0,96,0.00,,,0.00,VWS V14.00,2013-12-04 07:00:00,
2013-12-04 02:06:00,31.1,30.0,29.93,NW,309,0.0,0.0,96,0.00,,,0.00,VWS V14.00,2013-12-04 07:06:00,
2013-12-04 02:12:00,31.2,30.1,29.93,NW,309,0.0,0.0,96,0.00,,,0.00,VWS V14.00,2013-12-04 07:12:00,
2013-12-04 02:18:00,31.0,29.8,29.93,NW,309,0.0,0.0,95,0.00,,,0.00,VWS V14.00,2013-12-04 07:18:00,
2013-12-04 02:24:00,31.1,29.9,29.93,NW,309,0.0,0.0,95,0.00,,,0.00,VWS V14.00,2013-12-04 07:24:00,
2013-12-04 02:30:00,30.9,29.7,29.93,NW,309,0.0,0.0,95,0.00,,,0.00,VWS V14.00,2013-12-04 07:30:00,
2013-12-04 02:36:00,31.0,29.7,29.93,NW,309,0.0,0.0,95,0.00,,,0.00,VWS V14.00,2013-12-04 07:36:00,
2013-12-04 02:42:00,30.9,29.5,29.94,NW,309,0.0,0.0,95,0.00,,,0.00,VWS V14.00,2013-12-04 07:42:00,
2013-12-04 02:48:00,30.9,29.5,29.94,NW,309,0.0,0.0,94,0.00,,,0.00,VWS V14.00,2013-12-04 07:48:00,
2013-12-04 02:54:00,30.8,29.3,29.94,NW,309,0.0,0.0,94,0.00,,,0.00,VWS V14.00,2013-12-04 07:54:00,
2013-12-04 03:01:00,30.6,29.0,29.94,NW,309,0.0,0.0,94,0.00,,,0.00,VWS V14.00,2013-12-04 08:01:00,
2013-12-04 03:07:00,30.5,28.8,29.94,NW,309,0.0,0.0,93,0.00,,,0.00,VWS V14.00,2013-12-04 08:07:00,
2013-12-04 03:13:00,30.3,28.6,29.95,NW,309,0.0,0.0,93,0.00,,,0.00,VWS V14.00,2013-12-04 08:13:00,
2013-12-04 03:19:00,30.1,28.4,29.95,NW,309,0.0,0.0,93,0.00,,,0.00,VWS V14.00,2013-12-04 08:19:00,
2013-12-04 03:25:00,30.1,28.5,29.95,NW,309,0.0,0.0,94,0.00,,,0.00,VWS V14.00,2013-12-04 08:25:00,
2013-12-04 03:31:00,30.1,28.5,29.95,NW,309,0.0,0.0,94,0.00,,,0.00,VWS V14.00,2013-12-04 08:31:00,
2013-12-04 03:37:00,30.0,28.3,29.95,NW,309,0.0,0.0,93,0.00,,,0.00,VWS V14.00,2013-12-04 08:37:00,
2013-12-04 03:43:00,29.8,28.0,29.94,NW,309,0.0,0.0,93,0.00,,,0.00,VWS V14.00,2013-12-04 08:43:00,
2013-12-04 03:49:00,29.7,28.0,29.95,NW,309,0.0,0.0,93,0.00,,,0.00,VWS V14.00,2013-12-04 08:49:00,
2013-12-04 03:55:00,29.6,27.9,29.95,NW,309,0.0,0.0,93,0.00,,,0.00,VWS V14.00,2013-12-04 08:55:00,
2013-12-04 04:01:00,29.5,27.9,29.95,NW,309,0.0,0.0,94,0.00,,,0.00,VWS V14.00,2013-12-04 09:01:00,
2013-12-04 04:07:00,29.1,27.5,29.95,NW,309,0.0,0.0,94,0.00,,,0.00,VWS V14.00,2013-12-04 09:07:00,
2013-12-04 04:13:00,29.0,27.5,29.95,NW,309,0.0,0.0,94,0.00,,,0.00,VWS V14.00,2013-12-04 09:13:00,
2013-12-04 04:19:00,28.8,27.4,29.95,NW,309,0.0,0.0,94,0.00,,,0.00,VWS V14.00,2013-12-04 09:19:00,
2013-12-04 04:25:00,28.4,27.0,29.95,NW,309,0.0,0.0,94,0.00,,,0.00,VWS V14.00,2013-12-04 09:25:00,
2013-12-04 04:31:00,28.3,27.0,29.95,NW,309,0.0,0.0,95,0.00,,,0.00,VWS V14.00,2013-12-04 09:31:00,
2013-12-04 04:37:00,28.2,27.0,29.95,NW,309,0.0,0.0,95,0.00,,,0.00,VWS V14.00,2013-12-04 09:37:00,
2013-12-04 04:43:00,28.0,26.8,29.96,NW,309,0.0,0.0,95,0.00,,,0.00,VWS V14.00,2013-12-04 09:43:00,
2013-12-04 04:49:00,27.8,26.6,29.96,NW,309,0.0,0.0,95,0.00,,,0.00,VWS V14.00,2013-12-04 09:49:00,
2013-12-04 04:55:00,27.7,26.5,29.96,NW,309,0.0,0.0,95,0.00,,,0.00,VWS V14.00,2013-12-04 09:55:00,
2013-12-04 05:01:00,27.6,26.4,29.96,NW,309,0.0,0.0,95,0.00,,,0.00,VWS V14.00,2013-12-04 10:01:00,
2013-12-04 05:07:00,27.2,26.1,29.96,NW,309,0.0,0.0,96,0.00,,,0.00,VWS V14.00,2013-12-04 10:07:00,
2013-12-04 05:13:00,27.4,26.3,29.96,NW,309,0.0,0.0,96,0.00,,,0.00,VWS V14.00,2013-12-04 10:13:00,
2013-12-04 05:19:00,27.2,26.2,29.96,NW,309,0.0,0.0,96,0.00,,,0.00,VWS V14.00,2013-12-04 10:19:00,
2013-12-04 05:25:00,27.0,26.0,29.96,NW,309,0.0,0.0,96,0.00,,,0.00,VWS V14.00,2013-12-04 10:25:00,
2013-12-04 05:31:00,26.9,25.9,29.96,NW,309,0.0,0.0,96,0.00,,,0.00,VWS V14.00,2013-12-04 10:31:00,
2013-12-04 05:37:00,26.8,25.8,29.97,NW,309,0.0,0.0,96,0.00,,,0.00,VWS V14.00,2013-12-04 10:37:00,
2013-12-04 05:43:00,26.8,25.9,29.97,NW,309,0.0,0.0,96,0.00,,,0.00,VWS V14.00,2013-12-04 10:43:00,
2013-12-04 05:49:00,26.6,25.7,29.97,NW,309,0.0,0.0,96,0.00,,,0.00,VWS V14.00,2013-12-04 10:49:00,
2013-12-04 05:55:00,26.6,25.7,29.97,NW,309,0.0,0.0,96,0.00,,,0.00,VWS V14.00,2013-12-04 10:55:00,
2013-12-04 06:01:00,26.7,25.9,29.98,NW,309,0.0,0.0,97,0.00,,,0.00,VWS V14.00,2013-12-04 11:01:00,
2013-12-04 06:07:00,26.6,25.8,29.98,NW,309,0.0,0.0,97,0.00,,,0.00,VWS V14.00,2013-12-04 11:07:00,
2013-12-04 06:13:00,26.5,25.7,29.99,NW,309,0.0,0.0,97,0.00,,,0.00,VWS V14.00,2013-12-04 11:13:00,
2013-12-04 06:19:00,26.5,25.8,30.00,NW,309,0.0,0.0,97,0.00,,,0.00,VWS V14.00,2013-12-04 11:19:00,
2013-12-04 06:25:00,26.3,25.5,30.00,NW,309,0.0,0.0,97,0.00,,,0.00,VWS V14.00,2013-12-04 11:25:00,
2013-12-04 06:31:00,26.5,25.8,30.00,NW,309,0.0,0.0,97,0.00,,,0.00,VWS V14.00,2013-12-04 11:31:00,
2013-12-04 06:37:00,26.3,25.6,30.01,NW,309,0.0,0.0,97,0.00,,,0.00,VWS V14.00,2013-12-04 11:37:00,
2013-12-04 06:43:00,26.5,25.8,30.01,NW,309,0.0,0.0,97,0.00,,,0.00,VWS V14.00,2013-12-04 11:43:00,
2013-12-04 06:49:00,26.6,25.9,30.00,NW,309,0.0,0.0,97,0.00,,,0.00,VWS V14.00,2013-12-04 11:49:00,
2013-12-04 06:55:00,26.7,26.0,30.00,NW,309,0.0,0.0,97,0.00,,,0.00,VWS V14.00,2013-12-04 11:55:00,
2013-12-04 07:01:00,26.4,25.8,30.01,NW,309,0.0,0.0,98,0.00,,,0.00,VWS V14.00,2013-12-04 12:01:00,
2013-12-04 07:07:00,26.5,25.9,30.00,NW,309,0.0,0.0,98,0.00,,,0.00,VWS V14.00,2013-12-04 12:07:00,
2013-12-04 07:13:00,26.4,25.8,30.01,NW,309,0.0,0.0,97,0.00,,,0.00,VWS V14.00,2013-12-04 12:13:00,
2013-12-04 07:19:00,26.5,25.9,30.01,NW,309,0.0,0.0,97,0.00,,,0.00,VWS V14.00,2013-12-04 12:19:00,
2013-12-04 07:25:00,26.7,26.1,30.01,NW,309,0.0,0.0,98,0.00,,,0.00,VWS V14.00,2013-12-04 12:25:00,
2013-12-04 07:31:00,26.8,26.2,30.01,NW,309,0.0,0.0,98,0.00,,,0.00,VWS V14.00,2013-12-04 12:31:00,
2013-12-04 07:37:00,26.8,26.2,30.01,NW,309,0.0,0.0,98,0.00,,,0.00,VWS V14.00,2013-12-04 12:37:00,
2013-12-04 07:43:00,26.8,26.2,30.01,NW,309,0.0,0.0,98,0.00,,,0.00,VWS V14.00,2013-12-04 12:43:00,
2013-12-04 07:49:00,26.9,26.3,30.01,NW,309,0.0,0.0,98,0.00,,,0.00,VWS V14.00,2013-12-04 12:49:00,
2013-12-04 07:55:00,26.9,26.3,30.01,NW,309,0.0,0.0,98,0.00,,,0.00,VWS V14.00,2013-12-04 12:55:00,
2013-12-04 08:01:00,27.2,26.6,30.02,NW,309,0.0,0.0,97,0.00,,,0.00,VWS V14.00,2013-12-04 13:01:00,
2013-12-04 08:07:00,27.5,26.9,30.02,NW,309,0.0,0.0,97,0.00,,,0.00,VWS V14.00,2013-12-04 13:07:00,
2013-12-04 08:14:00,27.6,26.9,30.03,NW,309,0.0,0.0,97,0.00,,,0.00,VWS V14.00,2013-12-04 13:14:00,
2013-12-04 08:20:00,27.9,27.2,30.03,NW,309,0.0,0.0,97,0.00,,,0.00,VWS V14.00,2013-12-04 13:20:00,
2013-12-04 08:26:00,28.3,27.5,30.04,NW,309,0.0,0.0,97,0.00,,,0.00,VWS V14.00,2013-12-04 13:26:00,
2013-12-04 08:32:00,28.5,27.7,30.04,NW,309,0.0,0.0,97,0.00,,,0.00,VWS V14.00,2013-12-04 13:32:00,
2013-12-04 08:38:00,28.9,28.2,30.04,NW,309,0.0,0.0,97,0.00,,,0.00,VWS V14.00,2013-12-04 13:38:00,
2013-12-04 08:44:00,29.2,28.4,30.04,NW,309,0.0,0.0,97,0.00,,,0.00,VWS V14.00,2013-12-04 13:44:00,
2013-12-04 08:50:00,29.2,28.2,30.04,NW,309,0.0,0.0,96,0.00,,,0.00,VWS V14.00,2013-12-04 13:50:00,
2013-12-04 08:56:00,29.2,28.1,30.04,NW,309,0.0,0.0,96,0.00,,,0.00,VWS V14.00,2013-12-04 13:56:00,
2013-12-04 09:02:00,29.3,28.0,30.04,NW,309,0.0,0.0,95,0.00,,,0.00,VWS V14.00,2013-12-04 14:02:00,
2013-12-04 09:08:00,29.5,28.1,30.04,NW,309,0.0,0.0,95,0.00,,,0.00,VWS V14.00,2013-12-04 14:08:00,
2013-12-04 09:14:00,29.7,28.2,30.04,NW,309,0.0,0.0,94,0.00,,,0.00,VWS V14.00,2013-12-04 14:14:00,
2013-12-04 09:20:00,29.9,28.3,30.04,NW,309,0.0,0.0,94,0.00,,,0.00,VWS V14.00,2013-12-04 14:20:00,
2013-12-04 09:26:00,30.2,28.4,30.04,NW,309,0.0,0.0,93,0.00,,,0.00,VWS V14.00,2013-12-04 14:26:00,
2013-12-04 09:32:00,30.6,28.8,30.04,NW,309,0.0,0.0,93,0.00,,,0.00,VWS V14.00,2013-12-04 14:32:00,
2013-12-04 09:38:00,30.8,28.8,30.05,NW,309,0.0,0.0,92,0.00,,,0.00,VWS V14.00,2013-12-04 14:38:00,
2013-12-04 09:44:00,31.0,28.9,30.05,NW,309,0.0,0.0,92,0.00,,,0.00,VWS V14.00,2013-12-04 14:44:00,
2013-12-04 09:50:00,31.2,28.9,30.05,NW,309,0.0,0.0,91,0.00,,,0.00,VWS V14.00,2013-12-04 14:50:00,
2013-12-04 09:56:00,31.3,28.9,30.05,NW,309,0.0,0.0,90,0.00,,,0.00,VWS V14.00,2013-12-04 14:56:00,
2013-12-04 10:02:00,31.3,28.7,30.05,NW,309,0.0,0.0,90,0.00,,,0.00,VWS V14.00,2013-12-04 15:02:00,
2013-12-04 10:08:00,31.5,28.6,30.05,NW,309,0.0,0.0,89,0.00,,,0.00,VWS V14.00,2013-12-04 15:08:00,
2013-12-04 10:14:00,31.7,29.0,30.05,NW,309,0.0,0.0,90,0.00,,,0.00,VWS V14.00,2013-12-04 15:14:00,
2013-12-04 10:20:00,32.0,29.3,30.05,NW,309,0.0,0.0,90,0.00,,,0.00,VWS V14.00,2013-12-04 15:20:00,
2013-12-04 10:26:00,32.4,29.4,30.05,NW,309,0.0,0.0,88,0.00,,,0.00,VWS V14.00,2013-12-04 15:26:00,
2013-12-04 10:32:00,32.5,29.1,30.05,NW,309,0.0,0.0,87,0.00,,,0.00,VWS V14.00,2013-12-04 15:32:00,
2013-12-04 10:38:00,32.6,28.9,30.05,NW,309,0.0,0.0,86,0.00,,,0.00,VWS V14.00,2013-12-04 15:38:00,
2013-12-04 10:44:00,32.6,28.8,30.05,NW,309,0.0,0.0,86,0.00,,,0.00,VWS V14.00,2013-12-04 15:44:00,
2013-12-04 10:50:00,32.7,28.9,30.05,WNW,300,3.2,5.2,86,0.00,,,0.00,VWS V14.00,2013-12-04 15:50:00,
2013-12-04 10:56:00,32.9,29.0,30.05,NNW,343,0.0,5.7,85,0.00,,,0.00,VWS V14.00,2013-12-04 15:56:00,
2013-12-04 11:02:00,33.1,29.1,30.05,NNW,343,0.0,5.7,85,0.00,,,0.00,VWS V14.00,2013-12-04 16:02:00,
2013-12-04 11:08:00,33.3,29.2,30.05,NNW,329,0.0,7.3,85,0.00,,,0.00,VWS V14.00,2013-12-04 16:08:00,
2013-12-04 11:14:00,33.5,29.3,30.04,NNW,329,0.0,7.3,84,0.00,,,0.00,VWS V14.00,2013-12-04 16:14:00,
2013-12-04 11:20:00,33.8,29.4,30.03,NNW,329,0.0,7.3,84,0.00,,,0.00,VWS V14.00,2013-12-04 16:20:00,
2013-12-04 11:26:00,34.1,29.6,30.02,NNW,329,0.0,7.3,83,0.00,,,0.00,VWS V14.00,2013-12-04 16:26:00,
2013-12-04 11:32:00,34.3,29.6,30.02,NNW,329,0.0,7.3,83,0.00,,,0.00,VWS V14.00,2013-12-04 16:32:00,
2013-12-04 11:38:00,34.7,29.8,30.02,NNW,329,0.0,7.3,82,0.00,,,0.00,VWS V14.00,2013-12-04 16:38:00,
2013-12-04 11:44:00,34.6,29.5,30.03,NNW,329,0.0,7.3,81,0.00,,,0.00,VWS V14.00,2013-12-04 16:44:00,
2013-12-04 11:50:00,34.8,29.8,30.04,NNW,329,0.0,7.3,82,0.00,,,0.00,VWS V14.00,2013-12-04 16:50:00,
2013-12-04 11:56:00,35.2,29.9,30.03,NNW,329,0.0,7.3,81,0.00,,,0.00,VWS V14.00,2013-12-04 16:56:00,
2013-12-04 12:02:00,35.4,29.8,30.03,NNW,329,0.0,7.3,80,0.00,,,0.00,VWS V14.00,2013-12-04 17:02:00,
2013-12-04 12:08:00,35.6,29.9,30.02,NNW,329,0.0,7.3,80,0.00,,,0.00,VWS V14.00,2013-12-04 17:08:00,
2013-12-04 12:14:00,35.9,30.0,30.03,NNW,329,0.0,7.3,79,0.00,,,0.00,VWS V14.00,2013-12-04 17:14:00,
2013-12-04 12:20:00,36.0,30.1,30.02,NNW,329,0.0,7.3,79,0.00,,,0.00,VWS V14.00,2013-12-04 17:20:00,
2013-12-04 12:27:00,36.3,30.5,30.02,North,8,0.0,7.3,79,0.00,,,0.00,VWS V14.00,2013-12-04 17:27:00,
2013-12-04 12:33:00,36.4,30.0,30.02,North,8,0.0,7.3,77,0.00,,,0.00,VWS V14.00,2013-12-04 17:33:00,
2013-12-04 12:39:00,36.5,29.9,30.02,North,8,0.0,7.3,77,0.00,,,0.00,VWS V14.00,2013-12-04 17:39:00,
2013-12-04 12:45:00,36.3,29.5,30.02,North,8,0.0,7.3,76,0.00,,,0.00,VWS V14.00,2013-12-04 17:45:00,
2013-12-04 12:51:00,36.5,30.0,30.02,North,8,0.0,7.3,77,0.00,,,0.00,VWS V14.00,2013-12-04 17:51:00,
2013-12-04 12:57:00,36.7,30.0,30.02,North,8,0.0,7.3,77,0.00,,,0.00,VWS V14.00,2013-12-04 17:57:00,
2013-12-04 13:03:00,36.5,29.8,30.02,North,354,0.0,7.3,76,0.00,,,0.00,VWS V14.00,2013-12-04 18:03:00,
2013-12-04 13:09:00,36.5,29.7,30.02,NNE,13,0.0,7.3,76,0.00,,,0.00,VWS V14.00,2013-12-04 18:09:00,
2013-12-04 13:15:00,36.6,29.8,30.01,NNE,30,0.0,7.3,76,0.00,,,0.00,VWS V14.00,2013-12-04 18:15:00,
2013-12-04 13:21:00,36.9,30.1,30.01,NE,38,0.0,7.3,76,0.00,,,0.00,VWS V14.00,2013-12-04 18:21:00,
2013-12-04 13:27:00,37.1,30.5,30.01,NNE,18,0.0,7.3,77,0.00,,,0.00,VWS V14.00,2013-12-04 18:27:00,
2013-12-04 13:33:00,37.1,30.4,30.02,NNE,18,0.0,7.3,76,0.00,,,0.00,VWS V14.00,2013-12-04 18:33:00,
2013-12-04 13:39:00,37.2,30.3,30.02,North,353,0.0,7.3,76,0.00,,,0.00,VWS V14.00,2013-12-04 18:39:00,
2013-12-04 13:45:00,37.3,30.0,30.02,North,353,0.0,7.3,75,0.00,,,0.00,VWS V14.00,2013-12-04 18:45:00,
2013-12-04 13:51:00,37.3,29.7,30.02,North,353,0.0,7.3,74,0.00,,,0.00,VWS V14.00,2013-12-04 18:51:00,
2013-12-04 13:57:00,37.3,29.6,30.02,North,353,0.0,7.3,74,0.00,,,0.00,VWS V14.00,2013-12-04 18:57:00,
2013-12-04 14:03:00,37.3,29.4,30.02,North,353,0.0,7.3,73,0.00,,,0.00,VWS V14.00,2013-12-04 19:03:00,
2013-12-04 14:09:00,37.3,29.1,30.01,North,353,0.0,7.3,72,0.00,,,0.00,VWS V14.00,2013-12-04 19:09:00,
2013-12-04 14:15:00,37.2,29.0,30.01,North,353,0.0,7.3,72,0.00,,,0.00,VWS V14.00,2013-12-04 19:15:00,
2013-12-04 14:21:00,37.0,28.8,30.02,North,353,0.0,7.3,72,0.00,,,0.00,VWS V14.00,2013-12-04 19:21:00,
2013-12-04 14:27:00,36.7,28.5,30.03,North,353,0.0,7.3,72,0.00,,,0.00,VWS V14.00,2013-12-04 19:27:00,
2013-12-04 14:33:00,36.5,28.2,30.03,North,353,0.0,7.3,72,0.00,,,0.00,VWS V14.00,2013-12-04 19:33:00,
2013-12-04 14:39:00,36.3,28.1,30.03,North,353,0.0,7.3,72,0.00,,,0.00,VWS V14.00,2013-12-04 19:39:00,
2013-12-04 14:45:00,36.2,28.5,30.03,North,353,0.0,7.3,73,0.00,,,0.00,VWS V14.00,2013-12-04 19:45:00,
2013-12-04 14:51:00,36.1,28.7,30.03,North,353,0.0,7.3,74,0.00,,,0.00,VWS V14.00,2013-12-04 19:51:00,
2013-12-04 14:57:00,36.0,28.8,30.03,North,353,0.0,7.3,75,0.00,,,0.00,VWS V14.00,2013-12-04 19:57:00,
2013-12-04 15:03:00,36.0,28.8,30.03,North,353,0.0,7.3,75,0.00,,,0.00,VWS V14.00,2013-12-04 20:03:00,
2013-12-04 15:09:00,35.9,28.9,30.03,North,353,0.0,7.3,75,0.00,,,0.00,VWS V14.00,2013-12-04 20:09:00,
2013-12-04 15:15:00,35.9,28.9,30.03,North,353,0.0,7.3,75,0.00,,,0.00,VWS V14.00,2013-12-04 20:15:00,
2013-12-04 15:21:00,35.8,28.9,30.03,North,353,0.0,7.3,76,0.00,,,0.00,VWS V14.00,2013-12-04 20:21:00,
2013-12-04 15:27:00,35.7,28.7,30.03,North,353,0.0,7.3,75,0.00,,,0.00,VWS V14.00,2013-12-04 20:27:00,
2013-12-04 15:33:00,35.7,29.0,30.03,North,353,0.0,7.3,76,0.00,,,0.00,VWS V14.00,2013-12-04 20:33:00,
2013-12-04 15:39:00,35.6,29.0,30.03,North,353,0.0,7.3,77,0.00,,,0.00,VWS V14.00,2013-12-04 20:39:00,
2013-12-04 15:45:00,35.3,28.8,30.03,North,353,0.0,7.3,77,0.00,,,0.00,VWS V14.00,2013-12-04 20:45:00,
2013-12-04 15:51:00,35.1,28.5,30.04,North,353,0.0,7.3,77,0.00,,,0.00,VWS V14.00,2013-12-04 20:51:00,
2013-12-04 15:57:00,34.9,28.4,30.05,North,353,0.0,7.3,77,0.00,,,0.00,VWS V14.00,2013-12-04 20:57:00,
2013-12-04 16:03:00,34.8,28.6,30.05,North,353,0.0,7.3,78,0.00,,,0.00,VWS V14.00,2013-12-04 21:03:00,
2013-12-04 16:09:00,34.6,29.0,30.05,North,353,0.0,7.3,80,0.00,,,0.00,VWS V14.00,2013-12-04 21:09:00,
2013-12-04 16:15:00,34.4,28.9,30.04,North,353,0.0,7.3,80,0.00,,,0.00,VWS V14.00,2013-12-04 21:15:00,
2013-12-04 16:21:00,34.3,29.1,30.05,North,353,0.0,7.3,81,0.00,,,0.00,VWS V14.00,2013-12-04 21:21:00,
2013-12-04 16:27:00,34.4,29.5,30.04,North,353,0.0,7.3,82,0.00,,,0.00,VWS V14.00,2013-12-04 21:27:00,
2013-12-04 16:33:00,34.3,29.2,30.05,North,353,0.0,7.3,81,0.00,,,0.00,VWS V14.00,2013-12-04 21:33:00,
2013-12-04 16:39:00,34.1,28.8,30.05,North,353,0.0,7.3,81,0.00,,,0.00,VWS V14.00,2013-12-04 21:39:00,
2013-12-04 16:45:00,34.1,28.7,30.06,North,353,0.0,7.3,80,0.00,,,0.00,VWS V14.00,2013-12-04 21:45:00,
2013-12-04 16:51:00,34.2,28.7,30.06,North,353,0.0,7.3,80,0.00,,,0.00,VWS V14.00,2013-12-04 21:51:00,
2013-12-04 16:57:00,34.1,28.9,30.07,North,353,0.0,7.3,81,0.00,,,0.00,VWS V14.00,2013-12-04 21:57:00,
2013-12-04 17:03:00,34.4,29.2,30.07,North,353,0.0,7.3,81,0.00,,,0.00,VWS V14.00,2013-12-04 22:03:00,
2013-12-04 17:09:00,34.6,29.4,30.08,North,353,0.0,7.3,81,0.00,,,0.00,VWS V14.00,2013-12-04 22:09:00,
2013-12-04 17:15:00,34.6,29.5,30.08,North,353,0.0,7.3,81,0.00,,,0.00,VWS V14.00,2013-12-04 22:15:00,
2013-12-04 17:21:00,34.6,29.6,30.08,North,353,0.0,7.3,82,0.00,,,0.00,VWS V14.00,2013-12-04 22:21:00,
2013-12-04 17:27:00,34.6,29.6,30.07,North,353,0.0,7.3,82,0.00,,,0.00,VWS V14.00,2013-12-04 22:27:00,
2013-12-04 17:33:00,34.7,29.8,30.07,North,353,0.0,7.3,82,0.00,,,0.00,VWS V14.00,2013-12-04 22:33:00,
2013-12-04 17:40:00,34.7,29.6,30.07,North,353,0.0,7.3,81,0.00,,,0.00,VWS V14.00,2013-12-04 22:40:00,
2013-12-04 17:46:00,34.7,29.6,30.07,North,353,0.0,7.3,81,0.00,,,0.00,VWS V14.00,2013-12-04 22:46:00,
2013-12-04 17:52:00,34.5,29.1,30.07,North,353,0.0,7.3,80,0.00,,,0.00,VWS V14.00,2013-12-04 22:52:00,
2013-12-04 17:58:00,34.3,28.7,30.07,North,353,0.0,7.3,80,0.00,,,0.00,VWS V14.00,2013-12-04 22:58:00,
2013-12-04 18:04:00,33.9,28.5,30.07,North,353,0.0,7.3,80,0.00,,,0.00,VWS V14.00,2013-12-04 23:04:00,
2013-12-04 18:10:00,33.6,28.6,30.07,North,353,0.0,7.3,82,0.00,,,0.00,VWS V14.00,2013-12-04 23:10:00,
2013-12-04 18:16:00,33.3,28.4,30.07,North,353,0.0,7.3,82,0.00,,,0.00,VWS V14.00,2013-12-04 23:16:00,
2013-12-04 18:22:00,33.0,28.4,30.06,SE,128,0.0,7.3,83,0.00,,,0.00,VWS V14.00,2013-12-04 23:22:00,
2013-12-04 18:28:00,32.7,28.2,30.07,ESE,104,0.0,7.3,83,0.00,,,0.00,VWS V14.00,2013-12-04 23:28:00,
2013-12-04 18:34:00,32.5,28.1,30.07,South,172,0.0,7.3,84,0.00,,,0.00,VWS V14.00,2013-12-04 23:34:00,
2013-12-04 18:40:00,32.5,28.1,30.07,SE,146,0.0,7.3,84,0.00,,,0.00,VWS V14.00,2013-12-04 23:40:00,
2013-12-04 18:46:00,32.4,28.1,30.07,SE,146,0.0,7.3,84,0.00,,,0.00,VWS V14.00,2013-12-04 23:46:00,
2013-12-04 18:52:00,32.3,28.1,30.07,SE,146,0.0,7.3,84,0.00,,,0.00,VWS V14.00,2013-12-04 23:52:00,
2013-12-04 18:58:00,32.1,28.1,30.07,SE,146,0.0,7.3,85,0.00,,,0.00,VWS V14.00,2013-12-04 23:58:00,
2013-12-04 19:04:00,32.1,28.3,30.06,SE,146,0.0,7.3,86,0.00,,,0.00,VWS V14.00,2013-12-05 00:04:00,
2013-12-04 19:10:00,32.0,28.4,30.07,SE,146,0.0,7.3,86,0.00,,,0.00,VWS V14.00,2013-12-05 00:10:00,
2013-12-04 19:16:00,31.8,28.4,30.06,SE,146,0.0,7.3,87,0.00,,,0.00,VWS V14.00,2013-12-05 00:16:00,
2013-12-04 19:22:00,31.7,28.5,30.06,SE,146,0.0,7.3,88,0.00,,,0.00,VWS V14.00,2013-12-05 00:22:00,
2013-12-04 19:28:00,31.5,28.6,30.06,SE,146,0.0,7.3,89,0.00,,,0.00,VWS V14.00,2013-12-05 00:28:00,
2013-12-04 19:34:00,31.4,28.6,30.07,SSE,155,0.0,7.3,89,0.00,,,0.00,VWS V14.00,2013-12-05 00:34:00,
2013-12-04 19:40:00,31.3,28.6,30.07,SSE,155,0.0,7.3,90,0.00,,,0.00,VWS V14.00,2013-12-05 00:40:00,
2013-12-04 19:46:00,31.2,28.7,30.07,SSE,155,0.0,7.3,90,0.00,,,0.00,VWS V14.00,2013-12-05 00:46:00,
2013-12-04 19:52:00,31.2,28.8,30.07,SSE,155,0.0,7.3,91,0.00,,,0.00,VWS V14.00,2013-12-05 00:52:00,
2013-12-04 19:58:00,31.1,28.8,30.07,SSE,155,0.0,7.3,91,0.00,,,0.00,VWS V14.00,2013-12-05 00:58:00,
2013-12-04 20:04:00,31.2,28.9,30.07,SSE,155,0.0,7.3,91,0.00,,,0.00,VWS V14.00,2013-12-05 01:04:00,
2013-12-04 20:10:00,31.2,29.0,30.08,SSE,155,0.0,7.3,91,0.00,,,0.00,VWS V14.00,2013-12-05 01:10:00,
2013-12-04 20:16:00,31.0,28.9,30.08,SSE,155,0.0,7.3,92,0.00,,,0.00,VWS V14.00,2013-12-05 01:16:00,
2013-12-04 20:22:00,31.2,29.1,30.07,SSE,155,0.0,7.3,92,0.00,,,0.00,VWS V14.00,2013-12-05 01:22:00,
2013-12-04 20:28:00,31.1,29.1,30.07,SSE,155,0.0,7.3,92,0.00,,,0.00,VWS V14.00,2013-12-05 01:28:00,
2013-12-04 20:34:00,31.2,29.4,30.07,SSE,160,5.5,7.3,93,0.00,,,0.00,VWS V14.00,2013-12-05 01:34:00,
2013-12-04 20:40:00,31.4,29.6,30.07,SSE,160,0.0,7.3,93,0.00,,,0.00,VWS V14.00,2013-12-05 01:40:00,
2013-12-04 20:46:00,31.3,29.5,30.07,SE,125,0.0,7.3,93,0.00,,,0.00,VWS V14.00,2013-12-05 01:46:00,
2013-12-04 20:52:00,31.4,29.7,30.07,East,101,0.0,7.3,93,0.00,,,0.00,VWS V14.00,2013-12-05 01:52:00,
2013-12-04 20:58:00,31.2,29.5,30.07,East,101,0.0,7.3,94,0.00,,,0.00,VWS V14.00,2013-12-05 01:58:00,
2013-12-04 21:04:00,31.3,29.8,30.06,SSE,153,5.7,7.3,94,0.00,,,0.00,VWS V14.00,2013-12-05 02:04:00,
2013-12-04 21:10:00,31.5,30.0,30.06,SSE,167,0.0,8.2,94,0.00,,,0.00,VWS V14.00,2013-12-05 02:10:00,
2013-12-04 21:16:00,31.6,30.0,30.06,ESE,115,0.0,8.2,94,0.00,,,0.00,VWS V14.00,2013-12-05 02:16:00,
2013-12-04 21:22:00,31.9,30.3,30.06,ESE,111,0.0,8.2,94,0.00,,,0.00,VWS V14.00,2013-12-05 02:22:00,
2013-12-04 21:28:00,32.0,30.3,30.06,SE,143,5.7,8.4,94,0.00,,,0.00,VWS V14.00,2013-12-05 02:28:00,
2013-12-04 21:34:00,31.9,30.2,30.06,SSE,153,4.8,8.8,93,0.00,,,0.00,VWS V14.00,2013-12-05 02:34:00,
2013-12-04 21:40:00,31.9,30.2,30.06,SE,145,0.0,8.8,94,0.00,,,0.00,VWS V14.00,2013-12-05 02:40:00,
2013-12-04 21:46:00,31.8,30.1,30.07,SE,145,0.0,8.8,93,0.00,,,0.00,VWS V14.00,2013-12-05 02:46:00,
2013-12-04 21:52:00,31.9,30.2,30.07,SE,145,0.0,8.8,93,0.00,,,0.00,VWS V14.00,2013-12-05 02:52:00,
2013-12-04 21:58:00,31.7,30.0,30.07,SE,138,0.0,8.8,94,0.00,,,0.00,VWS V14.00,2013-12-05 02:58:00,
2013-12-04 22:04:00,31.6,30.0,30.07,SSE,149,4.8,8.8,94,0.00,,,0.00,VWS V14.00,2013-12-05 03:04:00,
2013-12-04 22:10:00,31.6,30.0,30.07,SSE,159,7.1,8.8,94,0.00,,,0.00,VWS V14.00,2013-12-05 03:10:00,
2013-12-04 22:16:00,31.7,30.1,30.07,SE,124,3.2,9.1,94,0.00,,,0.00,VWS V14.00,2013-12-05 03:16:00,
2013-12-04 22:22:00,31.8,30.2,30.06,SSE,160,5.8,9.5,94,0.00,,,0.00,VWS V14.00,2013-12-05 03:22:00,
2013-12-04 22:28:00,31.8,30.2,30.07,SE,136,0.0,9.5,94,0.00,,,0.00,VWS V14.00,2013-12-05 03:28:00,
2013-12-04 22:34:00,32.0,30.4,30.07,SSE,152,0.0,9.5,94,0.00,,,0.00,VWS V14.00,2013-12-05 03:34:00,
2013-12-04 22:40:00,31.8,30.2,30.07,SSE,152,0.0,9.5,94,0.00,,,0.00,VWS V14.00,2013-12-05 03:40:00,
2013-12-04 22:46:00,31.7,30.1,30.07,SSE,152,0.0,9.5,94,0.00,,,0.00,VWS V14.00,2013-12-05 03:46:00,
2013-12-04 22:52:00,31.5,30.0,30.08,SSE,152,0.0,9.5,94,0.00,,,0.00,VWS V14.00,2013-12-05 03:52:00,
2013-12-04 22:59:00,31.8,30.4,30.08,SSE,152,0.0,9.5,95,0.00,,,0.00,VWS V14.00,2013-12-05 03:59:00,
2013-12-04 23:05:00,31.8,30.4,30.08,SSE,152,0.0,9.5,95,0.00,,,0.00,VWS V14.00,2013-12-05 04:05:00,
2013-12-04 23:11:00,31.7,30.3,30.07,SSE,152,0.0,9.5,95,0.00,,,0.00,VWS V14.00,2013-12-05 04:11:00,
2013-12-04 23:17:00,31.5,30.1,30.07,SSE,152,0.0,9.5,95,0.00,,,0.00,VWS V14.00,2013-12-05 04:17:00,
2013-12-04 23:23:00,31.4,30.2,30.06,SSE,152,0.0,9.5,95,0.00,,,0.00,VWS V14.00,2013-12-05 04:23:00,
2013-12-04 23:29:00,31.5,30.5,30.06,SSE,152,0.0,9.5,96,0.00,,,0.00,VWS V14.00,2013-12-05 04:29:00,
2013-12-04 23:30:00,31.8,31.0,29.91,NW,309,0.0,6.5,97,0.00,,,0.00,VWS V14.00,2013-12-05 04:30:00,
2013-12-04 23:35:00,31.4,30.7,30.06,SSE,167,5.9,9.2,97,0.00,,,0.00,VWS V14.00,2013-12-05 04:35:00,
2013-12-04 23:40:00,31.7,30.9,29.91,NW,309,0.0,0.0,97,0.00,,,0.00,VWS V14.00,2013-12-05 04:40:00,
2013-12-04 23:41:00,31.6,31.0,30.06,SSE,167,7.2,9.1,98,0.00,,,0.00,VWS V14.00,2013-12-05 04:41:00,
2013-12-04 23:47:00,31.7,31.3,30.06,SSE,160,0.0,9.1,98,0.00,,,0.00,VWS V14.00,2013-12-05 04:47:00,
2013-12-04 23:50:00,31.5,30.7,29.91,NW,309,0.0,0.0,97,0.00,,,0.00,VWS V14.00,2013-12-05 04:50:00,
2013-12-04 23:53:00,31.8,31.5,30.06,SSE,160,0.0,0.0,99,0.00,,,0.00,VWS V14.00,2013-12-05 04:53:00,
2013-12-04 23:59:00,31.8,31.5,30.06,SSE,160,0.0,0.0,99,0.00,,,0.00,VWS V14.00,2013-12-05 04:59:00,